Le nostre stazioni meteo in Italia

Pubblicità
Il mio iltempo24.it
Bournemouth Airport, Gran Bretagna (3862): Temperatura & dewpoint: 24.03.2020 10:00:00 - 30.03.2020 10:00:00 (BST)Bournemouth Airport, Gran Bretagna (3862): Temperatura -20cm & Temperatura -100cm: 24.03.2020 10:00:00 - 30.03.2020 10:00:00 (BST)Bournemouth Airport, Gran Bretagna (3862): velocità del vento & gusts: 24.03.2020 10:00:00 - 30.03.2020 10:00:00 (BST)Bournemouth Airport, Gran Bretagna (3862): direzione del vento: 24.03.2020 10:00:00 - 30.03.2020 10:00:00 (BST)Bournemouth Airport, Gran Bretagna (3862): reduced air pressure: 24.03.2020 10:00:00 - 30.03.2020 10:00:00 (BST)Bournemouth Airport, Gran Bretagna (3862): visibility: 24.03.2020 10:00:00 - 30.03.2020 10:00:00 (BST)Bournemouth Airport, Gran Bretagna (3862): ore di luce: 24.03.2020 10:00:00 - 30.03.2020 10:00:00 (BST)Bournemouth Airport, Gran Bretagna (3862): precipitazioni: 24.03.2020 10:00:00 - 30.03.2020 10:00:00 (BST)
Data & Tempo tt [°C] td [°C] tt -20cm [°C] tt -100cm [°C] ff [km/h] ff [kn] fx [km/h] fx [kn] dd ppp [hPa] vv [km] sd [min] rr [mm]
30.03.2020 10:00:00 6,0 -2,5 - - 24 13 - - NNE 1036,2 45 60 0,0
30.03.2020 09:00:00 4,2 -1,6 - - 15 8 - - N 1036,4 10 24 0,0
30.03.2020 08:00:00 2,8 -1,6 - - 15 8 - - N 1036,9 10 0 0,0
30.03.2020 07:00:00 1,7 -1,8 - - 11 6 - - N 1037,1 35 0 0,0
30.03.2020 06:00:00 1,9 -1,8 - - 15 8 - - N 1036,9 35 0 0,0
30.03.2020 05:00:00 2,9 -1,5 - - 18 10 - - N 1037,5 35 0 0,0
30.03.2020 04:00:00 2,1 -1,4 - - 13 7 - - N 1038,0 35 0 0,0
30.03.2020 03:00:00 2,5 -1,4 - - 11 6 - - N 1038,6 40 0 0,0
30.03.2020 02:00:00 1,7 -2,3 - - 11 6 - - NNE 1039,1 35 0 0,0
30.03.2020 01:00:00 2,1 -2,4 - - 13 7 - - N 1039,4 35 - 0,0
30.03.2020 00:00:00 2,6 -3,0 - - 13 7 - - NNE 1039,7 35 0 0,0
29.03.2020 23:00:00 3,0 -4,1 - - 21 11 - - NNE 1039,8 35 0 0,0
29.03.2020 22:00:00 4,1 -4,8 - - 28 15 52 28 NE 1039,5 40 0 0,0
29.03.2020 21:00:00 4,7 -5,9 - - 26 14 48 26 NE 1039,2 50 0 0,0
29.03.2020 20:00:00 5,2 -6,2 - - 34 18 52 28 NE 1038,7 10 24 0,0
29.03.2020 19:00:00 6,4 -6,6 - - 34 18 63 34 NE 1038,1 10 60 0,0
29.03.2020 18:00:00 7,9 -5,5 - - 37 20 61 33 NE 1037,5 50 54 0,0
29.03.2020 17:00:00 8,5 -5,7 - - 37 20 61 33 NE 1037,3 10 54 0,0
29.03.2020 16:00:00 8,5 -5,2 - - 39 21 61 33 NE 1037,3 50 54 0,0
29.03.2020 15:00:00 9,7 -2,9 - - 41 22 63 34 NE 1037,1 10 54 0,0
29.03.2020 14:00:00 9,2 -3,2 - - 41 22 65 35 NE 1037,2 10 60 0,0
29.03.2020 13:00:00 8,2 -4,6 - - 39 21 63 34 NNE 1037,4 10 42 0,0
29.03.2020 12:00:00 8,1 -4,0 - - 35 19 63 34 NE 1037,4 10 54 0,0
29.03.2020 11:00:00 7,3 -4,5 - - 41 22 65 35 NE 1037,2 40 54 0,0
29.03.2020 10:00:00 6,0 -3,7 8,4 8,4 44 24 67 36 NNE 1037,0 30 54 0,0
29.03.2020 09:00:00 4,9 -3,4 - - 31 17 46 25 NNE 1037,0 35 48 0,0
29.03.2020 08:00:00 3,4 -2,5 - - 21 11 - - NNE 1036,9 30 0 0,0
29.03.2020 07:00:00 3,1 -2,5 - - 18 10 - - NNE 1036,2 29 0 0,0
29.03.2020 06:00:00 3,4 -3,1 - - 24 13 - - NNE 1035,8 30 0 0,0
29.03.2020 05:00:00 3,3 -1,4 - - 22 12 - - NNE 1035,8 29 0 0,0
29.03.2020 04:00:00 4,0 -1,4 - - 29 16 - - NE 1035,3 30 0 0,0
29.03.2020 03:00:00 4,4 -0,7 - - 28 15 - - NE 1035,0 30 0 0,0
29.03.2020 02:00:00 4,9 -0,2 - - 26 14 - - NE 1034,8 35 0 0,0
29.03.2020 01:00:00 4,8 -0,7 - - 26 14 - - NNE 1034,3 35 - 0,0
29.03.2020 00:00:00 5,0 -1,4 - - 26 14 55 30 NE 1033,7 35 0 0,0
28.03.2020 23:00:00 5,9 -2,1 - - 34 18 61 33 NE 1033,1 40 0 0,0
28.03.2020 22:00:00 6,8 -0,5 - - 26 14 63 34 NE 1032,2 40 0 0,0
28.03.2020 21:00:00 8,0 -0,3 - - 34 18 61 33 NE 1031,6 45 0 0,0
28.03.2020 20:00:00 8,8 -0,3 - - 34 18 59 32 NE 1030,4 50 0 0,0
28.03.2020 19:00:00 9,6 0,6 - - 35 19 61 33 NE 1029,4 45 12 0,0
28.03.2020 18:00:00 10,3 2,0 - - 35 19 63 34 NE 1028,6 40 36 0,0
28.03.2020 17:00:00 10,6 2,8 - - 37 20 61 33 NE 1028,3 10 42 0,0
28.03.2020 16:00:00 11,2 3,1 - - 41 22 57 31 NE 1027,8 35 60 0,0
28.03.2020 15:00:00 13,0 4,0 - - 35 19 55 30 NE 1027,3 10 54 0,0
28.03.2020 14:00:00 11,8 1,3 - - 39 21 55 30 NE 1027,3 10 54 0,0
28.03.2020 13:00:00 12,0 -0,2 - - 37 20 55 30 NE 1027,1 30 48 0,0
28.03.2020 12:00:00 11,9 2,6 - - 31 17 50 27 NE 1027,1 19 30 0,0
28.03.2020 11:00:00 9,9 1,9 - - 31 17 46 25 NE 1026,9 17 54 0,0
28.03.2020 10:00:00 8,3 2,0 8,4 8,4 29 16 - - NNE 1026,6 10 60 0,0
28.03.2020 09:00:00 6,3 2,2 - - 26 14 46 25 NNE 1026,2 9 42 0,0
28.03.2020 08:00:00 5,0 1,8 - - 29 16 46 25 NNE 1025,7 11 0 0,0
28.03.2020 07:00:00 4,5 1,2 - - 24 13 - - NNE 1025,2 12 0 0,0
28.03.2020 06:00:00 4,5 1,2 - - 26 14 - - NNE 1024,9 12 0 0,0
28.03.2020 05:00:00 4,5 1,2 - - 18 10 - - NNE 1024,8 11 0 0,0
28.03.2020 04:00:00 4,6 1,4 - - 16 9 - - NNE 1024,6 12 0 0,0
28.03.2020 03:00:00 4,7 1,1 - - 18 10 - - NNE 1024,8 12 0 0,0
28.03.2020 02:00:00 4,7 0,5 - - 21 11 - - NNE 1024,8 13 0 0,0
28.03.2020 01:00:00 5,4 -0,3 - - 18 10 - - NNE 1024,8 16 - 0,0
28.03.2020 00:00:00 6,2 -1,0 - - 18 10 - - NNE 1024,8 19 0 0,0
27.03.2020 23:00:00 7,3 -0,6 - - 22 12 - - NNE 1024,7 20 0 0,0
27.03.2020 22:00:00 8,4 1,3 - - 22 12 - - NNE 1024,0 17 0 0,0
27.03.2020 21:00:00 9,2 2,0 - - 16 9 - - NNE 1023,6 17 0 0,0
27.03.2020 20:00:00 10,2 2,5 - - 15 8 - - NNE 1022,8 10 0 0,0
27.03.2020 19:00:00 11,8 2,3 - - 21 11 - - NNE 1022,2 10 48 0,0
27.03.2020 18:00:00 13,0 1,3 - - 21 11 - - NE 1021,7 18 60 0,0
27.03.2020 17:00:00 13,4 1,3 - - 22 12 - - NE 1021,6 18 60 0,0
27.03.2020 16:00:00 13,6 0,7 - - 22 12 - - NE 1022,1 10 60 0,0
27.03.2020 15:00:00 13,6 -0,8 - - 18 10 - - NE 1022,4 10 60 0,0
27.03.2020 14:00:00 13,3 0,8 - - 16 9 - - NE 1022,8 19 60 0,0
27.03.2020 13:00:00 12,1 0,3 - - 21 11 - - ENE 1023,5 20 60 0,0
27.03.2020 12:00:00 11,0 1,8 - - 22 12 - - NE 1023,7 16 60 0,0
27.03.2020 11:00:00 9,1 0,9 - - 24 13 - - NE 1023,9 16 60 0,0
27.03.2020 10:00:00 7,0 1,9 8,0 8,5 16 9 - - NNE 1023,9 10 60 0,0
27.03.2020 09:00:00 4,5 1,2 - - 15 8 - - NNE 1023,7 9 54 0,0
27.03.2020 08:00:00 2,2 -0,3 - - 15 8 - - NNE 1023,5 8 0 0,0
27.03.2020 07:00:00 1,7 -0,7 - - 15 8 - - NE 1023,2 9 0 0,0
27.03.2020 06:00:00 2,0 -1,1 - - 13 7 - - NNE 1023,0 10 0 0,0
27.03.2020 05:00:00 1,6 -1,5 - - 9 5 - - NNE 1023,0 10 0 0,0
27.03.2020 04:00:00 1,6 -2,1 - - 5 3 - - NE 1022,9 13 0 0,0
27.03.2020 03:00:00 1,3 -3,3 - - 11 6 - - NE 1023,0 15 0 0,0
27.03.2020 02:00:00 2,6 -4,0 - - 15 8 - - NE 1023,1 20 0 0,0
27.03.2020 01:00:00 2,9 -5,0 - - 11 6 - - NE 1023,2 24 - 0,0
27.03.2020 00:00:00 4,0 -5,1 - - 13 7 - - ENE 1023,0 26 0 0,0
26.03.2020 23:00:00 4,4 -4,4 - - 11 6 - - E 1022,9 26 0 0,0
26.03.2020 22:00:00 8,3 -4,1 - - 9 5 - - ESE 1022,4 30 0 0,0
26.03.2020 21:00:00 7,5 -3,7 - - 13 7 - - ENE 1021,9 10 0 0,0
26.03.2020 20:00:00 8,8 -2,7 - - 11 6 - - NE 1021,6 29 18 0,0
26.03.2020 19:00:00 12,3 -3,7 - - 21 11 - - ENE 1021,1 10 60 0,0
26.03.2020 18:00:00 12,6 -2,4 - - 18 10 - - ENE 1020,9 10 42 0,0
26.03.2020 17:00:00 14,3 -3,3 - - 24 13 - - NE 1020,9 30 60 0,0
26.03.2020 16:00:00 14,5 -2,2 - - 26 14 - - ENE 1021,3 28 60 0,0
26.03.2020 15:00:00 14,2 -1,1 - - 22 12 - - ENE 1021,4 10 60 0,0
26.03.2020 14:00:00 13,5 -1,8 - - 16 9 - - ENE 1021,9 10 60 0,0
26.03.2020 13:00:00 13,1 -2,3 - - 21 11 - - ENE 1022,2 25 60 0,0
26.03.2020 12:00:00 11,7 -2,7 - - 24 13 - - NE 1022,6 10 60 0,0
26.03.2020 11:00:00 10,2 -0,5 - - 21 11 - - NE 1022,8 10 60 0,0
26.03.2020 10:00:00 6,4 0,8 8,2 8,5 18 10 - - NE 1022,9 10 60 0,0
26.03.2020 09:00:00 3,8 0,2 - - 15 8 - - NNE 1022,7 10 48 0,0
26.03.2020 08:00:00 1,3 -1,3 - - 11 6 - - NNE 1022,7 10 0 0,0
26.03.2020 07:00:00 0,1 -2,8 - - 8 4 - - N 1022,2 8 0 0,0
26.03.2020 06:00:00 -0,1 -3,1 - - 8 4 - - N 1022,1 10 0 0,0
26.03.2020 05:00:00 -0,4 -3,1 - - 9 5 - - N 1022,2 13 0 0,0
26.03.2020 04:00:00 -1,0 -3,9 - - 4 2 - - NO 1022,5 17 0 0,0
26.03.2020 03:00:00 -1,5 -5,0 - - 5 3 - - NNO 1022,6 24 0 0,0
26.03.2020 02:00:00 -1,5 -5,7 - - 4 2 - - NNO 1022,9 18 0 0,0
26.03.2020 01:00:00 2,9 -5,0 - - 11 6 - - NE 1023,2 24 - 0,0
26.03.2020 00:00:00 0,3 -1,3 - - 5 3 - - ENE 1023,1 14 0 0,0
25.03.2020 23:00:00 0,7 -1,6 - - 4 2 - - NNE 1023,1 19 0 0,0
25.03.2020 22:00:00 1,8 -1,1 - - 5 3 - - NE 1022,9 22 0 0,0
25.03.2020 21:00:00 4,3 -0,3 - - 5 3 - - N 1022,7 26 0 0,0
25.03.2020 20:00:00 7,3 0,9 - - 2 1 - - SSO 1022,3 10 24 0,0
25.03.2020 19:00:00 9,4 0,9 - - 11 6 - - SSE 1022,2 10 60 0,0
25.03.2020 18:00:00 12,0 -4,4 - - 15 8 - - SSE 1022,3 10 60 0,0
25.03.2020 17:00:00 13,1 -6,8 - - 13 7 - - SE 1022,3 10 60 0,0
25.03.2020 16:00:00 12,8 -5,0 - - 13 7 - - E 1022,9 10 60 0,0
25.03.2020 15:00:00 12,4 -3,3 - - 16 9 - - ESE 1023,3 40 60 0,0
25.03.2020 14:00:00 12,7 -1,4 - - 16 9 - - ESE 1023,8 10 60 0,0
25.03.2020 13:00:00 11,9 -0,3 - - 16 9 - - E 1024,0 30 60 0,0
25.03.2020 12:00:00 11,8 1,1 - - 15 8 - - ESE 1024,0 10 60 0,0
25.03.2020 11:00:00 10,4 0,9 - - 11 6 - - E 1024,2 10 60 0,0
25.03.2020 10:00:00 9,3 3,3 8,2 8,7 9 5 - - E 1024,2 10 60 0,0
25.03.2020 09:00:00 1,9 1,7 - - 2 1 - - NO 1024,4 9 48 0,0
25.03.2020 08:00:00 -2,5 -2,9 - - 2 1 - - NO 1024,5 6 0 0,0
25.03.2020 07:00:00 -2,2 -2,8 - - 4 2 - - NO 1024,1 4,9 0 0,0
25.03.2020 06:00:00 -2,6 -3,2 - - 2 1 - - NO 1023,9 6 0 0,0
25.03.2020 05:00:00 -2,1 -2,6 - - 2 1 - - ONO 1023,8 4,8 0 0,0
25.03.2020 04:00:00 -1,5 -2,1 - - 2 1 - - NO 1023,9 4,5 0 0,0
25.03.2020 03:00:00 -2,1 -2,9 - - 4 2 - - NO 1024,0 8 0 0,0
25.03.2020 02:00:00 -1,2 -2,0 - - 4 2 - - NNO 1024,2 7 0 0,0
25.03.2020 01:00:00 0,0 -1,8 - - 11 6 - - NE 1023,1 15 - 0,0
25.03.2020 00:00:00 -0,1 -1,7 - - 5 3 - - NNO 1024,3 8 0 0,0
24.03.2020 23:00:00 1,3 -0,6 - - 5 3 - - NNE 1024,5 15 0 0,0
24.03.2020 22:00:00 3,9 0,4 - - 8 4 - - E 1024,5 10 0 0,0
24.03.2020 21:00:00 6,3 2,0 - - 8 4 - - ESE 1024,3 23 0 0,0
24.03.2020 20:00:00 8,0 3,8 - - 8 4 - - SSE 1024,1 10 12 0,0
24.03.2020 19:00:00 10,1 3,6 - - 9 5 - - SSE 1024,0 25 60 0,0
24.03.2020 18:00:00 11,1 1,0 - - 15 8 - - SSE 1024,1 35 60 0,0
24.03.2020 17:00:00 11,4 0,6 - - 15 8 - - SSE 1024,4 10 60 0,0
24.03.2020 16:00:00 11,8 2,7 - - 16 9 - - SSE 1024,9 30 60 0,0
24.03.2020 15:00:00 11,2 3,2 - - 36 19 - - SE 1025,3 10 60 0,0
24.03.2020 14:00:00 11,2 4,3 - - 40 22 - - SE 1025,5 10 60 0,0
24.03.2020 13:00:00 11,3 4,6 - - 21 11 - - SSE 1025,5 22 60 0,0
24.03.2020 12:00:00 11,2 4,9 - - 36 19 - - SSE 1025,4 10 60 0,0
24.03.2020 11:00:00 10,4 4,5 - - 21 11 - - SSE 1025,7 22 60 0,0
24.03.2020 10:00:00 - - - - - - - - - - - - -

tt = Temperatura
td = dewpoint
tt -20cm = Temperatura -20cm
tt -100cm = Temperatura -100cm
ff = velocità del vento
fx = gusts
dd = direzione del vento
ppp = reduced air pressure
vv = visibility
sd = ore di luce
rr = precipitazioni

Stazioni seguenti

WeatherPro
AMSI
MeteoEarth